Погода в Летнике

Россия / Ростовская область     46°00′09″N   41°16′04″E
темп.,
°C
ветер,
м/с
пор.,
м/с
влажн.,
%
обл.,
%
осадки,
мм/ч
давл.,
гПа
погр.,
м
24 сентября, пт
пт2400:00+11ююв2383100 0.0 1013165
03:00+11ююз1292100 2.3 1013128
06:00+11юв2292100 1.3 1012159
09:00+11ю2389100 1.4 1013302
12:00+15юз346998 0.6 1013949
15:00+18зюз684119 0.8 10122134
18:00+15з495993 0.0 1013499
21:00+12зюз3766100 0.0 1013126
25 сентября, сб
сб2500:00+12ю3668100 0.0 1012127
03:00+12ююз61583100 0.8 1010942
06:00+12ююз61386100 6.1 1010632
09:00+12юз6890100 11.9 1010545
12:00+13ююз71087100 2.3 1012520
15:00+15юз6976100 3.6 1012928
18:00+14зюз61172100 1.6 1014490
21:00+12зюз5108289 1.6 1016270
26 сентября, вс
вс2600:00+11зюз511885 0.0 1017307
03:00+10зюз4109049 0.0 1018271
06:00+12зюз5118090 0.1 1018462
09:00+14зюз71173100 0.1 10191115
12:00+14зюз71374100 0.0 1018978
15:00+15зюз101767100 0.0 10161141
18:00+15зюз101873100 0.9 10151293
21:00+15зюз10168199 1.9 1014894
27 сентября, пн
пн2700:00+15з7147766 1.1 1014647
03:00+11зсз38840 1.1 1015177
06:00+10зсз411820 0.0 1016276
09:00+13сз69600 0.0 1016875
12:00+16зсз68485 0.0 10171574
15:00+17сз674445 0.0 10171952
18:00+14сз365596 0.0 1018191
21:00+13ссз2459100 0.0 1019141
28 сентября, вт
вт2800:00+12с237031 0.0 101970
03:00+10ссв23795 0.0 102039
06:00+9св22855 0.0 102124
09:00+13всв33695 0.0 1022481
12:00+17всв445157 0.0 10211622
15:00+17всв344998 0.1 10211274
18:00+16в3346100 0.0 102258
21:00+15всв4652100 0.0 1023165